Regional Weather Roundup
Issued by NWS

Home | Current Version | Previous Version | Text Only | Print | Product List | Glossary Off
Versions: 1 2 3 4 5 6 7 8 9 10 11 12 13 14 15 16 17 18 19 20 21 22 23 24 25 26 27 28 29 30 31 32 33 34 35 36 37 38 39 40 41 42 43 44 45 46 47 48 49 50

000
ASUS43 KLOT 231200
RWRIL

ILLINOIS REGIONAL WEATHER ROUNDUP
NATIONAL WEATHER SERVICE CHICAGO/ROMEOVILLE IL
700 AM CDT THU OCT 23 2014

NOTE: "FAIR" INDICATES FEW OR NO CLOUDS BELOW 12,000 FEET WITH NO
SIGNIFICANT WEATHER AND/OR OBSTRUCTIONS TO VISIBILITY.

* THESE STATIONS ARE NOT UNDER NWS QUALITY CONTROL. THEY ALSO MAY NOT
  REPORT WEATHER SUCH AS PRECIPITATION OR FOG.

ILZ001-002-007-009-015-016-024-231300-
NORTHWEST ILLINOIS

CITY           SKY/WX    TMP DP  RH WIND       PRES   REMARKS
MOLINE         PTCLDY    40  36  86 E7        30.16S
6HR MIN TEMP:  37; 6HR MAX TEMP:  45;

STERLING*      PTCLDY    34  30  86 E6        30.19S WCI  29
$$

ILZ003-004-008-010-011-017-018-231300-
NORTH CENTRAL ILLINOIS

CITY           SKY/WX    TMP DP  RH WIND       PRES   REMARKS
ROCKFORD       MOCLDY    38  33  82 S3        30.22R
6HR MIN TEMP:  37; 6HR MAX TEMP:  40;

$$

ILZ005-006-012>014-019>023-231300-
NORTHEAST ILLINOIS

CITY           SKY/WX    TMP DP  RH WIND       PRES   REMARKS
CHICAGO-OHARE  PTCLDY    36  35  96 S8        30.21S WCI  30
6HR MIN TEMP:  36; 6HR MAX TEMP:  39;

CHICAGO-MIDWAY PTCLDY    42  38  85 S7        30.22S
6HR MIN TEMP:  41; 6HR MAX TEMP:  45;

AURORA         PTCLDY    35  32  88 SE3       30.21S FOG
6HR MIN TEMP:  32; 6HR MAX TEMP:  37;

WAUKEGAN       CLEAR     35  34  96 CALM      30.20F FOG
6HR MIN TEMP:  31; 6HR MAX TEMP:  39;

DUPAGE AIRPORT CLEAR     35  33  92 SE3       30.20F FOG
6HR MIN TEMP:  34; 6HR MAX TEMP:  37;

WHEELING       CLEAR     37  34  89 CALM      30.23S FOG
6HR MIN TEMP:  35; 6HR MAX TEMP:  38;

NORTHERLY ISL    N/A     43  38  82 SW9         N/A
$$

LMZ740>746-231300-
SOUTHERN LAKE MICHIGAN

STATION/POSITION SKY/WX   TEMP    WIND        PRES    VSBY  WAVE
                          AIR SEA DIR/SP/G                  HT/PER
                          (F)     (DEG/KT/KT) (MB)    (MI)  (FT/S)
SOUTHERN BUOY              50 54  190/ 14/ 16 1023.5F         2/ 4
WAUKEGAN HARBOR            44     210/  9/ 11   N/A
HARRISON CRIB              45     190/ 16/ 18   N/A
BURNHAM HARBOR             43     200/  8/  9   N/A
CALUMET HARBOR             41     180/  5/  7 1022.2F
MICHIGAN CITY              41     140/ 12/ 15   N/A
$$

ILZ025>027-034>036-040-047-049-050-058-095>099-231300-
WEST-CENTRAL ILLINOIS

CITY           SKY/WX    TMP DP  RH WIND       PRES   REMARKS
QUINCY         MOCLDY    47  41  80 S8        30.16F
$$

ILZ028>032-037-038-041>044-048-051>054-059>061-231300-
CENTRAL ILLINOIS

CITY           SKY/WX    TMP DP  RH WIND       PRES   REMARKS
DECATUR        PTCLDY    34  33  96 CALM      30.22S
PEORIA         CLEAR     42  36  79 S3        30.20S
6HR MIN TEMP:  41; 6HR MAX TEMP:  46;

SPRINGFIELD    CLEAR     40  36  86 S6        30.20F
6HR MIN TEMP:  36; 6HR MAX TEMP:  43;

TAYLORVILLE    NOT AVBL
$$

ILZ033-039-045-046-055>057-062-063-231300-
EAST-CENTRAL ILLINOIS

CITY           SKY/WX    TMP DP  RH WIND       PRES   REMARKS
CHAMPAIGN      PTCLDY    34  33  96 E5        30.22F FOG     WCI  30
MATTOON        PTCLDY    40  37  89 S6        30.22S
$$

ILZ079-100>102-231300-
SOUTHWEST ILLINOIS

CITY           SKY/WX    TMP DP  RH WIND       PRES   REMARKS
ALTON          PTCLDY    37  36  93 SE5       30.21S WCI  34
BELLEVILLE     CLEAR     36  35  99 CALM      30.21S FOG
CAHOKIA*       PTCLDY    37  36  96 CALM      30.22R
$$

ILZ064>066-069>071-074>076-080>082-084>086-088>090-092>094-231300-
SOUTH-CENTRAL ILLINOIS

CITY           SKY/WX    TMP DP  RH WIND       PRES   REMARKS
CARBONDALE     FOG      N/A N/A N/A CALM      30.22S VSB 1/4
MARION         CLEAR     39  37  93 SE6       30.23S WCI  35
MT. VERNON     CLEAR     36  30  80 CALM      30.23S
$$

ILZ067-068-072-073-078-083-087-091-231300-
SOUTHEAST ILLINOIS

CITY           SKY/WX    TMP DP  RH WIND       PRES   REMARKS
LAWRENCEVILLE  CLEAR     37  37 100 E6        30.25S FOG     WCI  32
$$

ABBREVIATIONS USED IN REMARKS
   TC - TEMPERATURE IN CELSIUS
  WCI - WIND CHILL INDEX
   HX - HEAT INDEX
  VSB - VISIBILITY
$$




USA.gov is the U.S. government's official web portal to all federal, state and local government web resources and services.